Regional Weather Roundup
Issued by NWS

Home | Current Version | Previous Version | Text Only | Print | Product List | Glossary Off
Versions: 1 2 3 4 5 6 7 8 9 10 11 12 13 14 15 16 17 18 19 20 21 22 23 24 25 26 27 28 29 30 31 32 33 34 35 36 37 38 39 40 41 42 43 44 45 46 47 48 49 50

000
ASUS43 KIND 261009
RWRIN

WEATHER ROUNDUP FOR INDIANA
NATIONAL WEATHER SERVICE INDIANAPOLIS IN
500 AM EST FRI DEC 26 2014

NOTE: "FAIR" INDICATES FEW OR NO CLOUDS BELOW 12,000 FEET WITH NO
SIGNIFICANT WEATHER AND/OR OBSTRUCTIONS TO VISIBILITY.

* - STATION DOES NOT REPORT WEATHER SUCH AS PRECIPITATION OR FOG.

+ - STATION NOT QUALITY CONTROLLED BY THE NATIONAL WEATHER SERVICE.
    USE DATA WITH CAUTION...ESPECIALLY DEWPOINT AND RELATIVE
    HUMIDITY OBSERVATIONS.

INZ001>003-010>013-019-020-261100-
NORTHWEST INDIANA

CITY           SKY/WX    TMP DP  RH WIND       PRES   REMARKS
KNOX *+        CLEAR     34  29  82 S14       30.04S WCI  25
LA PORTE +     PTCLDY    36  33  90 S7        30.04F
MICHIGAN CITY+ CLEAR     36  30  80 S13       30.03F
MONTICELLO +   CLEAR     35  32  88 S9        30.07S WCI  28
RENSSELAER +   CLEAR     36  36 100 S15G21    30.06S
VALPARAISO     CLEAR     33  30  88 S8        30.04F WCI  26

$$

LMZ046-743>745-261100-
SOUTHERN LAKE MICHIGAN

STATION/POSITION TIME  TEMP WIND        PRES
                       AIR  DIR/SP/G
                 (UTC) (F)  (DEG/KT/KT) (MB)
MICHIGAN CITY    1000   37  150/ 17/ 22   N/A

$$

INZ004-005-014>016-021>024-261100-
NORTH CENTRAL INDIANA

CITY           SKY/WX    TMP DP  RH WIND       PRES   REMARKS
GOSHEN         CLEAR     35  31  85 S12       30.06F WCI  27
LOGANSPORT +   CLEAR     34  32  93 S13       30.09F WCI  25
PERU/GRISSOM   CLEAR     35  35 100 S10       30.09F WCI  28
ROCHESTER +    CLEAR     37  34  87 S12G20    30.09R
SOUTH BEND     CLEAR     36  31  82 S9        30.05
WARSAW +       CLEAR     34  32  93 S8        30.08F WCI  27

$$

INZ006>009-017-018-025>027-261100-
NORTHEAST INDIANA

CITY           SKY/WX    TMP DP  RH WIND       PRES   REMARKS
ANGOLA *+      CLEAR     32  30  93 S5        30.08F WCI  27
AUBURN +       CLEAR     32  30  93 CALM      30.10F
FORT WAYNE     CLEAR     33  30  88 S10       30.12F WCI  25
HUNTINGTON +   CLEAR     35  32  90 S10       30.12R WCI  27

$$

INZ028-029-035-036-043>045-051>053-261100-
WEST CENTRAL INDIANA

CITY           SKY/WX    TMP DP  RH WIND       PRES   REMARKS
GREENCASTLE +  CLEAR     37  32  81 SW9G18    30.14S
LAFAYETTE      CLEAR     36  32  85 S7        30.10S
TERRE HAUTE    CLEAR     37  32  82 S10       30.13F

$$

INZ030>032-037>040-046>048-054>057-064-065-261100-
CENTRAL INDIANA

CITY           SKY/WX    TMP DP  RH WIND       PRES   REMARKS
CP ATTERBURY + CLEAR     30  28  93 MISG      30.18S FOG
FRANKFORT +    CLEAR     35  35 100 S10       30.11F WCI  27
INDIANAPOLIS   CLEAR     32  30  92 S10       30.14F WCI  24
-EAGLE CREEK   CLEAR     33  30  88 S5        30.14S WCI  29
KOKOMO *+      CLEAR     34  28  80 S14       30.11F WCI  24
MARION +       CLEAR     33  31  90 S13       30.13F WCI  24
MT COMFORT *+  CLEAR     34  34 100 S9        30.16S WCI  26
SHELBYVILLE    CLEAR     35  31  85 S12       30.17S WCI  27
ZIONSVILLE +   CLEAR     34  30  86 S9        30.13F WCI  26

$$

INZ033-034-041-042-049-050-058-059-261100-
EAST CENTRAL INDIANA

CITY           SKY/WX    TMP DP  RH WIND       PRES   REMARKS
MUNCIE         CLEAR     35  31  85 S10       30.14S WCI  27

$$

INZ060-061-067>069-081>083-085>088-261100-
SOUTHWEST INDIANA

CITY           SKY/WX    TMP DP  RH WIND       PRES   REMARKS
EVANSVILLE     CLEAR     36  32  85 CALM      30.19F
HUNTINGBURG *+ CLEAR     36  30  80 S7        30.20S
WASHINGTON +   CLEAR     34  32  90 S7        30.17F WCI  28

$$

INZ062-063-066-070>080-084-089>092-261100-
SOUTH CENTRAL AND SOUTHEAST INDIANA

CITY           SKY/WX    TMP DP  RH WIND       PRES   REMARKS
BLOOMINGTON    CLEAR     37  33  85 S9        30.16F

$$




USA.gov is the U.S. government's official web portal to all federal, state and local government web resources and services.